Location: Unspecified
(35.6961°N, 0.0000°E)
Time: 11:52:15
(UTC+00:00)

Hubble Space Telescope - Pass Details

Date: 24 April 2019
Orbit: 536 x 540 km, 28.5° (Epoch: 21 May)

Event Time Altitude Azimuth Distance (km) Brightness Sun altitude
Exits shadow 04:43:51 - 225° (SW) 2,036 3.1 -7.1°
Reaches altitude 10° 04:44:39 10° 219° (SW) 1,784 2.9 -7.0°
Maximum altitude 04:47:53 22° 168° (SSE) 1,189 2.5 -6.3°
Drops below altitude 10° 04:51:08 10° 116° (ESE) 1,787 4.1 -5.7°
Sets 04:53:45 0° 101° (E) 2,678 5.5 -5.2°
